Weather in Galveston

United States     29°17′48″N   94°48′12″W
temp.,
°C
wind,
m/s
gust,
m/s
humid.,
%
clouds,
%
prec.,
mm/h
press.,
hPa
HPBL,
m
24 may, tue
tue2401:00+26se897598 0.1 10111095
04:00+26sse7883100 0.1 1010799
07:00+26sse7879100 0.3 1010834
10:00+26s81181100 1.7 1011892
13:00+27s9127920 5.9 10091001
16:00+27s91279100 3.1 1008881
19:00+27sse101284100 4.6 1007982
22:00+27sse111580100 0.0 10071099
25 may, wed
wed2501:00+27sse121782100 0.0 10071149
04:00+27ssw111577100 1.0 10101359
07:00+27s8117915 1.3 1009986
10:00+27ssw71077100 4.7 1010950
13:00+27s3468100 4.9 1010589
16:00+27ssw44723 0.6 1009322
19:00+25wnw888256 3.9 1009591
22:00+23n568317 10.2 1012434
26 may, thu
thu2601:00+24n98750 10.9 1013838
04:00+24nnw56560 0.0 1012559
07:00+23nw56540 0.0 1014643
10:00+22nnw56560 0.0 1015720
13:00+24n13460 0.0 1015588
16:00+25sse32490 0.0 1014296
19:00+26s54530 0.0 1013275
22:00+26ssw44580 0.0 1014316
27 may, fri
fri2701:00+26sw11550 0.0 1014273
04:00+25nw21590 0.0 1014336
07:00+25wnw22610 0.0 1015246
10:00+25wsw55620 0.0 1016382
13:00+24nne22590 0.0 1016345
16:00+25sse32580 0.0 1013205
19:00+26s55660 0.0 1012287
22:00+26s55700 0.0 1012331
28 may, sat
sat2801:00+27s55690 0.0 1012483
04:00+27ssw66650 0.0 1011536
07:00+27ssw66650 0.0 1012619
10:00+27ssw56650 0.0 1013675
13:00+27ssw78703 0.0 1012820
16:00+27ssw89780 0.0 1010876
19:00+27s78800 0.0 1009783
22:00+27s911810 0.0 1009762